Wind_Speed
2 3 4 4 5 6 5 5 6 6 8 8 9 10 11 11 11 12 11 11 11 11 10 10 8 7 6 6 5 4 3 3 3 2 2 2 1 1 1 0 1 1 2 2 2 3 3 4 5
1 2 2 3 4 4 4 4 5 6 7 8 9 10 11 11 11 12 11 11 10 10 10 10 8 7 7 6 5 4 3 3 3 3 2 2 1 1 0 0 1 1 2 3 3 4 4 5 6
2 2 2 2 1 1 2 3 4 5 7 8 9 10 11 11 11 11 11 10 10 10 9 9 8 7 7 6 5 5 4 4 3 3 2 2 1 1 1 1 1 2 2 3 4 4 4 5 6
3 2 3 2 2 3 3 4 5 6 7 8 9 10 11 11 11 10 10 10 9 9 8 8 7 7 7 7 6 5 5 4 3 3 2 2 2 1 1 2 2 2 3 3 4 5 4 5 6
3 2 2 3 4 4 4 4 5 6 7 8 9 10 10 10 10 10 10 9 9 8 8 7 7 7 7 7 6 6 5 4 3 2 2 2 2 2 2 3 3 3 3 4 4 4 4 5 5
5 3 3 4 5 5 5 5 5 6 6 7 8 9 10 10 10 10 10 9 9 8 7 7 7 6 7 7 7 6 6 5 4 3 2 2 2 2 3 3 2 3 3 3 3 3 4 5 5
6 5 5 5 6 6 6 6 5 6 6 7 8 9 9 10 10 10 10 9 8 8 7 7 7 6 6 6 6 6 5 5 4 3 3 3 3 3 3 2 1 2 2 3 3 4 4 5 5
7 6 6 5 6 7 6 6 6 6 6 6 8 8 8 9 10 9 9 8 8 7 7 7 7 6 6 6 6 5 5 4 4 4 4 4 3 3 2 2 1 2 2 3 3 4 4 5 5
8 7 7 7 7 7 6 7 6 6 6 6 7 8 8 9 9 9 8 8 7 7 7 7 7 6 6 6 6 5 5 5 5 4 4 4 4 3 3 2 2 2 3 3 4 4 4 4 4
9 8 10 9 8 8 7 7 6 6 7 7 7 7 8 8 9 8 7 8 7 6 6 7 7 7 6 6 6 5 6 6 6 5 5 5 4 4 3 3 3 3 3 4 4 4 4 4 4
10 10 11 10 9 8 8 7 7 7 7 7 7 8 8 9 9 8 7 7 7 7 6 7 7 7 6 6 6 6 6 6 6 6 5 5 4 4 3 3 3 4 4 4 4 4 4 4 4
11 11 11 10 10 9 9 8 8 7 7 6 7 8 9 9 9 8 7 7 7 7 6 7 7 8 8 7 6 6 6 6 6 6 6 5 5 4 4 4 4 4 4 4 4 4 4 5 5
12 12 12 11 10 10 9 9 8 8 7 7 8 8 9 8 8 8 7 7 7 7 7 8 8 8 8 8 7 7 7 7 7 7 6 6 6 5 5 5 4 4 4 4 4 5 5 6 5
12 12 12 12 11 11 10 9 8 7 8 8 9 9 9 8 8 8 8 7 8 8 8 8 9 8 8 8 7 7 7 7 7 7 7 7 6 5 5 5 5 5 4 4 4 4 5 5 5
13 12 12 13 12 12 10 10 9 8 8 8 9 9 9 9 9 9 10 10 9 9 8 8 9 8 8 7 7 7 7 7 7 7 7 6 7 6 6 6 6 6 6 5 5 4 4 5 5
13 13 12 14 13 12 11 11 11 11 10 10 10 9 10 10 10 11 11 11 10 9 9 9 8 8 7 6 7 8 8 8 7 7 6 6 7 6 6 7 7 7 7 6 6 5 5 5 5
14 13 14 14 13 13 12 12 13 12 11 10 10 10 11 11 11 12 12 12 11 10 9 9 9 8 8 7 7 8 9 8 8 8 7 7 7 7 6 7 7 7 7 6 6 6 6 6 6
15 15 15 15 14 14 13 13 13 12 12 12 12 12 12 12 12 12 12 12 11 10 9 9 8 8 8 8 8 9 8 8 8 8 8 8 7 7 7 7 7 7 7 6 7 7 6 6 6
17 15 15 16 16 15 14 15 14 13 13 13 13 13 13 13 12 12 12 12 11 10 9 8 8 8 8 8 9 9 9 9 9 9 9 8 8 8 7 7 6 7 7 6 6 6 7 7 6
16 16 16 17 16 15 15 15 15 14 14 13 13 14 14 14 13 13 12 11 11 11 10 9 9 10 9 9 10 9 9 10 10 9 9 9 9 9 8 8 7 7 7 7 7 7 7 7 7
16 15 16 17 16 16 15 15 16 16 15 14 14 14 15 15 14 13 12 12 11 11 10 10 10 10 10 10 10 10 10 10 10 9 9 9 9 9 9 9 8 8 8 8 8 8 8 8 7
16 16 16 16 15 16 16 14 17 17 16 15 14 14 14 14 13 13 13 12 11 11 10 10 10 11 11 11 11 11 10 10 10 10 10 9 9 9 10 9 9 9 9 8 8 8 9 9 8
17 17 17 16 16 16 16 15 16 16 15 15 14 14 14 14 14 13 13 12 12 11 11 11 11 12 12 12 11 11 11 11 11 11 11 10 10 10 10 10 10 10 9 9 8 8 8 8 9
17 17 17 16 15 17 17 15 15 15 15 14 14 14 14 14 14 14 13 13 12 12 12 12 12 13 14 13 13 13 12 12 12 12 12 12 11 11 11 10 10 10 10 10 10 9 9 9 9
17 16 15 15 16 17 18 17 16 15 15 14 14 14 14 13 14 13 13 13 13 13 12 13 14 14 15 15 14 14 14 13 13 13 13 13 12 12 12 11 11 11 11 11 11 10 10 10 10
18 16 16 15 15 16 18 17 17 16 15 14 14 15 14 14 14 13 13 13 14 14 13 14 14 15 15 14 15 15 15 15 14 14 13 13 13 12 12 12 12 12 12 11 11 11 11 12 11
18 18 18 17 16 15 17 18 17 16 16 15 15 15 15 15 14 14 14 15 15 15 14 14 14 14 14 15 15 16 15 15 15 15 14 14 14 13 13 13 13 13 13 13 12 12 13 13 13
19 18 18 17 16 16 16 17 17 16 16 15 16 16 16 16 16 15 15 16 16 15 15 15 15 15 16 16 16 16 16 16 16 15 15 15 15 15 14 14 14 14 14 14 14 14 14 14 14
19 19 19 19 18 16 15 17 18 16 16 17 17 16 16 16 17 17 16 17 17 17 17 17 16 16 17 17 17 17 17 17 16 16 16 16 16 15 15 15 15 15 15 15 15 16 15 15 15
19 20 19 19 20 19 17 18 20 17 17 17 18 17 17 17 17 18 18 18 19 19 19 18 18 17 17 17 17 17 18 18 18 17 17 17 17 16 16 16 16 16 16 16 17 17 17 17 16
Wind_Direction
26 28 38 44 46 42 40 34 27 22 22 22 21 24 28 28 28 24 21 21 22 23 24 27 28 26 27 27 24 22 33 39 48 59 70 83 93 97 95 195 212 212 223 227 226 237 243 235 227
345 8 18 31 48 35 21 21 19 15 18 19 16 18 23 24 21 20 18 19 19 18 19 24 28 26 25 26 25 25 34 32 37 48 55 58 64 78 47 262 247 234 230 230 233 237 243 240 231
301 316 334 5 5 11 345 355 358 0 8 14 15 15 18 18 17 17 15 14 14 14 15 21 23 25 27 27 27 30 33 33 34 40 45 47 43 10 304 284 281 262 243 241 241 244 247 245 236
281 297 310 322 289 293 311 330 337 344 353 3 8 13 13 13 13 14 14 10 9 9 11 17 19 20 24 26 25 27 26 25 28 29 33 32 26 8 328 292 277 269 259 253 253 247 251 249 244
258 272 306 287 280 285 300 315 329 343 348 353 357 2 5 6 8 11 11 9 6 6 7 12 15 17 19 20 20 21 20 19 22 25 23 17 7 351 330 305 278 261 259 258 257 250 254 253 246
244 252 262 263 274 282 293 303 316 334 343 346 351 355 2 3 4 6 5 3 2 2 3 8 11 13 15 17 16 18 19 20 19 19 14 7 357 347 338 321 276 243 248 251 256 261 259 252 245
238 239 243 261 272 280 288 296 307 315 328 339 344 348 354 358 358 359 359 360 359 359 2 4 2 4 8 11 14 17 20 18 12 8 4 351 343 345 350 344 274 239 244 253 259 265 262 250 244
240 242 251 259 268 275 278 284 294 301 315 325 332 339 343 348 350 352 354 355 356 357 359 2 359 358 0 5 12 14 14 8 358 352 347 336 331 332 336 342 307 266 258 262 265 266 262 247 242
241 242 248 253 261 269 269 274 281 290 304 312 321 327 333 339 341 348 350 349 353 356 360 1 357 355 355 358 3 5 4 358 350 341 336 330 325 317 318 315 307 286 273 274 277 271 255 241 237
242 242 248 252 256 261 267 273 278 286 300 309 316 323 329 333 334 339 341 341 344 346 355 360 355 352 350 351 354 356 356 351 346 339 333 328 323 312 306 306 297 283 278 280 280 272 253 239 237
246 243 251 254 255 256 260 268 277 284 295 301 310 318 322 326 329 331 333 336 338 337 339 347 349 348 344 343 343 347 349 346 343 339 332 325 315 311 300 302 297 288 283 277 274 265 245 242 231
247 248 250 252 252 251 254 263 270 277 286 293 304 313 319 324 326 325 326 330 333 331 327 327 333 339 336 336 333 337 341 335 335 334 326 318 314 314 307 304 299 290 287 282 277 265 246 245 235
247 249 250 250 251 249 250 255 263 269 281 287 297 308 319 321 319 318 315 316 318 318 319 319 323 332 335 336 329 330 334 333 330 329 324 315 312 315 308 303 300 295 291 285 284 273 251 243 236
246 248 249 251 250 249 247 249 256 263 275 284 294 303 312 311 310 309 307 304 305 307 309 313 316 321 329 333 328 332 331 328 328 327 321 316 310 309 303 300 301 290 287 283 284 286 268 256 249
246 245 249 252 252 250 247 247 251 260 271 284 293 298 303 302 301 299 299 298 296 296 300 306 310 312 315 327 331 331 329 329 333 329 324 317 315 305 297 295 290 288 284 280 281 286 281 262 252
246 244 248 252 251 248 245 247 254 260 267 276 284 289 294 296 296 294 295 296 294 289 293 300 306 307 306 313 330 334 330 324 329 332 329 321 315 307 298 290 285 282 280 276 275 278 278 262 254
244 243 244 250 249 247 244 247 254 261 261 267 274 281 289 291 290 290 294 295 292 287 291 296 296 302 301 310 323 328 331 326 327 330 327 320 316 313 308 297 288 281 277 275 275 275 276 268 264
243 240 242 247 248 247 247 249 255 260 260 263 267 275 283 286 285 286 289 292 289 284 287 294 297 305 310 314 319 325 327 324 326 328 327 321 316 314 312 306 295 284 277 274 274 271 271 273 268
241 242 242 247 248 248 250 252 256 258 261 260 264 272 278 282 284 285 289 290 285 283 286 288 293 300 307 310 313 316 319 320 317 317 316 315 311 309 306 301 298 289 284 280 278 272 270 273 271
243 244 243 247 249 249 250 253 258 262 263 262 265 271 275 279 280 283 287 288 284 280 281 282 288 293 300 304 307 307 312 317 319 317 314 310 309 304 301 297 293 291 287 285 280 275 275 271 264
242 241 242 247 251 253 256 257 258 263 266 267 268 272 275 275 275 280 284 283 279 276 280 281 285 290 294 298 299 300 304 309 314 315 314 310 307 304 300 296 290 285 283 283 280 275 275 270 267
241 241 241 245 251 257 257 261 262 263 266 269 272 275 275 273 274 280 280 278 276 275 277 280 282 289 292 294 295 297 300 304 307 308 308 307 306 304 297 292 289 286 285 285 282 277 277 269 266
237 240 241 246 251 256 259 260 264 265 264 268 268 271 272 274 276 282 281 277 274 273 276 279 280 285 291 292 292 294 296 298 301 303 304 303 300 301 300 292 287 285 284 283 283 279 280 272 267
238 239 243 249 253 255 258 259 262 266 269 269 268 269 270 272 274 278 278 274 275 277 277 277 280 285 289 291 292 291 292 294 297 299 300 301 299 298 298 290 283 281 281 279 280 280 280 275 270
237 235 244 249 251 256 259 258 260 263 267 268 268 269 270 271 273 275 276 271 272 277 280 280 281 286 289 290 291 291 289 292 293 294 296 297 295 294 295 291 280 278 279 278 278 277 275 271 269
235 233 236 242 250 254 259 258 263 264 266 266 269 272 271 271 274 275 274 273 273 275 279 282 284 288 292 293 293 293 291 292 291 289 289 292 291 289 288 286 281 278 276 275 277 275 273 270 268
239 237 239 243 249 251 256 260 264 263 265 265 267 271 273 273 274 274 272 272 275 276 277 282 283 287 291 295 297 296 296 293 292 289 286 287 290 290 285 282 279 275 273 273 272 272 271 272 269
239 241 241 241 248 252 257 264 266 264 264 264 267 272 273 271 268 268 268 268 273 276 280 281 283 286 289 292 294 295 296 295 291 289 286 285 286 287 286 281 280 274 272 272 272 274 272 274 270
241 243 242 242 246 249 255 261 262 263 262 265 269 273 273 267 264 265 266 269 269 271 276 278 282 285 286 287 289 291 294 295 294 289 287 283 283 284 285 286 285 279 276 273 271 273 274 273 273
242 243 243 244 250 251 252 258 261 262 263 265 267 270 269 266 264 265 267 270 270 271 274 276 280 283 285 285 285 287 290 291 291 291 291 288 285 283 283 284 286 282 279 275 271 271 274 272 273
Height
5915 5915 5916 5916 5917 5918 5917 5915 5914 5912 5911 5909 5908 5906 5905 5904 5903 5903 5899 5896 5894 5893 5891 5889 5888 5887 5886 5885 5884 5883 5882 5881 5881 5880 5879 5879 5878 5878 5877 5877 5876 5876 5876 5876 5875 5875 5875 5875 5875
5915 5915 5916 5917 5918 5919 5917 5915 5914 5912 5911 5909 5908 5906 5905 5903 5902 5900 5898 5896 5895 5893 5891 5890 5888 5887 5886 5885 5884 5883 5882 5881 5880 5880 5879 5878 5878 5877 5876 5876 5875 5875 5875 5875 5874 5874 5874 5874 5874
5914 5915 5916 5917 5918 5918 5917 5915 5913 5912 5910 5909 5908 5906 5905 5903 5901 5900 5898 5896 5895 5893 5892 5890 5889 5887 5886 5885 5884 5883 5882 5881 5880 5879 5878 5878 5877 5876 5876 5875 5874 5874 5874 5874 5873 5873 5873 5873 5873
5913 5915 5916 5917 5917 5916 5915 5914 5913 5912 5910 5909 5908 5906 5904 5903 5901 5900 5898 5896 5895 5893 5892 5890 5889 5888 5886 5885 5884 5883 5881 5881 5880 5879 5878 5877 5876 5876 5875 5874 5873 5873 5873 5873 5872 5872 5872 5872 5871
5913 5914 5916 5916 5915 5915 5914 5913 5912 5911 5910 5908 5907 5906 5904 5903 5901 5899 5898 5896 5895 5893 5891 5890 5889 5888 5886 5885 5883 5882 5881 5880 5879 5878 5877 5876 5876 5875 5873 5872 5871 5871 5871 5871 5871 5871 5870 5870 5870
5912 5914 5916 5915 5914 5914 5913 5912 5912 5911 5910 5908 5907 5905 5904 5902 5901 5899 5897 5896 5894 5893 5891 5890 5889 5887 5886 5885 5883 5882 5881 5880 5879 5878 5877 5876 5875 5874 5872 5869 5868 5869 5870 5870 5870 5869 5869 5868 5868
5912 5913 5914 5914 5914 5913 5912 5911 5911 5910 5909 5908 5906 5905 5903 5902 5900 5899 5897 5896 5894 5893 5891 5890 5889 5887 5886 5884 5883 5882 5880 5879 5878 5877 5876 5875 5874 5873 5871 5869 5868 5868 5869 5869 5868 5868 5867 5867 5867
5909 5912 5912 5913 5913 5912 5911 5910 5910 5909 5908 5907 5906 5904 5903 5902 5900 5898 5897 5895 5894 5893 5891 5890 5888 5887 5885 5884 5882 5881 5880 5879 5878 5877 5875 5874 5873 5872 5871 5869 5868 5868 5868 5867 5867 5866 5866 5865 5865
5907 5911 5911 5911 5911 5910 5909 5909 5909 5908 5907 5906 5905 5904 5902 5901 5899 5898 5896 5895 5894 5893 5891 5890 5888 5886 5885 5883 5882 5881 5880 5878 5877 5876 5875 5873 5872 5871 5870 5869 5868 5868 5867 5866 5866 5865 5864 5864 5864
5906 5908 5909 5909 5909 5908 5908 5907 5907 5907 5906 5905 5904 5902 5901 5900 5898 5897 5896 5895 5893 5892 5891 5889 5888 5886 5884 5883 5881 5880 5879 5878 5876 5875 5874 5872 5871 5870 5869 5868 5867 5867 5866 5865 5864 5864 5863 5863 5863
5903 5905 5905 5906 5906 5906 5906 5906 5906 5906 5905 5904 5903 5902 5900 5899 5898 5897 5896 5894 5893 5892 5890 5889 5887 5886 5884 5883 5881 5880 5878 5877 5875 5874 5873 5871 5870 5869 5868 5867 5866 5865 5865 5864 5863 5862 5862 5862 5862
5901 5902 5902 5903 5903 5904 5904 5904 5904 5904 5904 5903 5902 5901 5899 5898 5897 5896 5895 5894 5892 5891 5890 5888 5887 5885 5884 5882 5880 5879 5878 5876 5875 5873 5872 5870 5869 5868 5867 5866 5865 5864 5864 5863 5862 5861 5861 5861 5861
5898 5899 5900 5900 5901 5901 5902 5902 5902 5902 5902 5901 5900 5899 5898 5897 5896 5895 5894 5893 5891 5890 5889 5888 5886 5884 5883 5881 5880 5878 5877 5875 5874 5872 5871 5869 5868 5867 5866 5865 5864 5863 5863 5862 5861 5860 5860 5860 5859
5896 5897 5897 5898 5898 5899 5900 5900 5900 5900 5900 5899 5899 5898 5897 5896 5894 5893 5892 5891 5890 5889 5888 5887 5885 5883 5882 5880 5878 5877 5876 5874 5872 5871 5869 5868 5866 5865 5864 5863 5863 5862 5861 5861 5860 5859 5859 5858 5858
5893 5894 5895 5895 5896 5897 5898 5899 5899 5898 5898 5898 5897 5896 5896 5894 5893 5892 5891 5889 5889 5887 5886 5885 5883 5882 5880 5879 5877 5876 5874 5873 5871 5870 5868 5866 5865 5864 5863 5862 5861 5861 5860 5859 5859 5858 5858 5857 5857
5890 5892 5893 5893 5893 5894 5897 5898 5897 5896 5896 5896 5895 5894 5894 5893 5891 5890 5889 5888 5887 5886 5884 5883 5882 5880 5879 5878 5876 5875 5873 5872 5870 5868 5867 5865 5864 5863 5861 5860 5860 5859 5858 5858 5858 5857 5856 5856 5856
5887 5890 5891 5891 5891 5892 5894 5895 5894 5894 5894 5893 5893 5892 5892 5891 5890 5888 5887 5886 5885 5884 5882 5881 5880 5879 5878 5876 5875 5874 5872 5870 5869 5867 5866 5864 5863 5862 5860 5859 5858 5857 5857 5857 5856 5856 5855 5855 5854
5885 5887 5887 5888 5888 5889 5890 5891 5891 5891 5891 5890 5890 5890 5889 5888 5887 5886 5885 5884 5883 5882 5881 5880 5879 5877 5876 5875 5874 5873 5871 5869 5868 5866 5865 5863 5862 5860 5859 5858 5857 5856 5855 5855 5855 5854 5853 5853 5853
5881 5883 5884 5885 5885 5886 5887 5888 5888 5888 5888 5888 5887 5887 5886 5886 5885 5884 5882 5881 5880 5879 5879 5878 5877 5876 5875 5874 5873 5871 5870 5868 5866 5865 5863 5862 5861 5859 5858 5857 5856 5855 5854 5853 5853 5852 5852 5851 5851
5878 5879 5881 5881 5882 5883 5884 5885 5885 5885 5885 5885 5884 5884 5883 5883 5882 5881 5880 5878 5878 5877 5877 5876 5875 5874 5873 5872 5871 5869 5868 5866 5865 5863 5862 5860 5859 5858 5857 5856 5854 5853 5853 5852 5852 5851 5850 5849 5849
5874 5876 5877 5878 5878 5880 5881 5882 5882 5882 5881 5881 5881 5881 5880 5880 5879 5878 5877 5876 5875 5875 5874 5874 5873 5872 5871 5870 5869 5867 5866 5864 5863 5862 5860 5859 5857 5856 5855 5854 5853 5852 5852 5851 5850 5849 5848 5848 5848
5870 5872 5873 5874 5876 5877 5879 5880 5879 5878 5878 5878 5878 5877 5877 5876 5876 5875 5874 5873 5873 5872 5872 5871 5870 5870 5869 5867 5866 5865 5864 5862 5861 5860 5858 5857 5855 5854 5853 5852 5851 5850 5850 5849 5848 5847 5847 5846 5846
5867 5869 5870 5871 5873 5874 5875 5876 5877 5875 5875 5875 5875 5874 5874 5873 5873 5872 5872 5871 5870 5869 5869 5868 5868 5867 5866 5865 5864 5862 5861 5860 5858 5857 5856 5854 5853 5852 5851 5849 5849 5848 5847 5847 5846 5845 5844 5844 5844
5863 5865 5866 5868 5869 5871 5871 5873 5873 5872 5872 5872 5871 5871 5871 5870 5870 5869 5868 5868 5867 5867 5866 5865 5865 5864 5863 5862 5861 5860 5858 5857 5855 5854 5853 5852 5851 5849 5848 5847 5846 5845 5845 5844 5844 5843 5842 5842 5842
5859 5863 5865 5866 5867 5868 5868 5868 5869 5869 5869 5869 5868 5868 5867 5867 5867 5866 5865 5865 5864 5864 5863 5863 5862 5861 5860 5859 5858 5857 5855 5854 5852 5851 5850 5849 5848 5846 5845 5844 5843 5842 5842 5841 5841 5840 5840 5840 5839
5856 5859 5863 5865 5866 5866 5863 5864 5866 5865 5865 5865 5865 5864 5864 5864 5863 5863 5863 5862 5861 5861 5860 5860 5859 5858 5856 5855 5854 5853 5852 5850 5849 5848 5847 5845 5844 5843 5842 5841 5840 5840 5839 5838 5838 5838 5837 5837 5837
5852 5854 5857 5859 5860 5861 5861 5860 5861 5861 5861 5861 5861 5861 5860 5860 5860 5860 5859 5859 5858 5858 5857 5857 5856 5855 5854 5852 5851 5850 5848 5847 5846 5845 5843 5842 5841 5840 5839 5838 5837 5836 5836 5835 5835 5834 5834 5834 5833
5848 5850 5852 5854 5856 5857 5858 5857 5857 5857 5857 5857 5857 5857 5857 5857 5856 5856 5856 5855 5855 5854 5854 5853 5852 5851 5850 5849 5848 5846 5845 5844 5843 5841 5840 5839 5837 5836 5835 5834 5833 5833 5832 5832 5831 5831 5830 5830 5830
5844 5846 5847 5850 5852 5854 5855 5856 5852 5853 5853 5853 5853 5853 5852 5852 5852 5852 5852 5852 5851 5850 5850 5849 5849 5847 5846 5845 5844 5843 5842 5840 5839 5837 5836 5835 5834 5833 5832 5830 5830 5829 5828 5828 5827 5827 5827 5826 5826
5839 5840 5843 5845 5846 5847 5850 5852 5847 5848 5848 5848 5848 5848 5848 5848 5848 5848 5847 5847 5847 5846 5845 5845 5844 5843 5842 5841 5840 5839 5837 5836 5835 5834 5832 5831 5830 5829 5828 5827 5826 5825 5824 5823 5823 5823 5822 5822 5822